#timestamp,LO_Frequency,Hit,StdDev 
1714633215.2,286047001.2,N
1714633235.0,286046998.7,N
1714633236.0,286046998.7,N
1714633255.8,286046998.6,N
1714633275.6,286047001.2,N
1714633295.5,286046998.7,N
1714633315.3,286046998.8,N
1714633335.1,286046998.7,N
1714633355.9,286046998.1,N
1714633375.7,286047002.8,N
1714633395.6,286047002.3,N
1714633415.4,286047002.4,N
1714633435.2,286047002.4,N
1714633455.1,286047000.1,N
1714633456.0,286047000.1,N
1714633475.8,286047001.0,N
1714633495.6,286046998.6,N
1714633515.5,286047000.8,N
1714633535.3,286047001.2,N
1714633555.2,286047000.1,N
1714633575.9,286047000.5,N
1714633595.7,286047001.2,N
1714633615.6,286047000.8,N
1714633635.4,286047000.8,N
1714633655.3,286047000.9,N
1714633675.1,286046999.9,N
1714633676.0,286046999.9,N
1714633695.8,286046999.8,N
1714633715.7,286047002.6,N
1714633735.5,286047001.4,N
1714633755.3,286047001.7,N
1714633775.2,286047001.7,N
1714633795.0,286047005.9,Y
1714633795.9,286047005.9,P
1714633815.8,286047004.2,N
1714633835.6,286047004.0,N
1714633855.4,286047004.1,N
1714633875.3,286047002.5,N
1714633895.1,286047002.0,N
1714633915.9,286047002.5,N
1714633935.7,286046999.7,N
1714633955.5,286047000.4,N
1714633975.4,286046998.1,N
1714633995.2,286047000.5,N
1714634015.1,286047000.0,N
1714634016.0,286047000.0,N
1714634035.8,286047000.4,N
1714634055.6,286047000.0,N
1714634075.5,286047001.1,N
1714634095.3,286047000.6,N
1714634115.1,286046998.1,N
1714634135.9,286047001.0,N
1714634155.7,286047000.3,N
1714634175.6,286047002.7,N
1714634195.4,286047002.6,N
1714634215.3,286047003.9,N
1714634235.1,286047002.9,N
1714634236.0,286047002.9,N
1714634255.8,286047003.8,N
1714634275.7,286047003.5,N
1714634295.5,286047003.8,N
1714634315.3,286047003.0,N
1714634335.2,286047003.8,N
1714634355.0,286047002.2,N
1714634355.9,286047002.2,N
1714634375.8,286047002.4,N
1714634395.6,286047002.4,N
1714634415.5,286047002.6,N
1714634435.3,286047002.6,N
1714634455.1,286047002.1,N
1714634475.9,286047002.5,N
1714634495.7,286047002.5,N
1714634515.5,286047002.0,N
1714634535.4,286046999.9,N
1714634555.2,286047002.1,N
1714634575.1,286047001.9,N
1714634576.0,286047001.9,N
1714634595.8,286047004.1,Y
1714634615.7,286047002.5,P
1714634635.5,286047001.7,P
1714634655.3,286047001.9,P
1714634675.2,286047002.2,Y
1714634695.0,286046998.4,P
1714634695.9,286046998.4,N
1714634715.8,286046998.3,N
1714634735.6,286046996.9,N
1714634755.4,286046998.9,N
1714634775.3,286046999.2,N
1714634795.1,286046996.6,N
1714634815.9,286046997.8,N
1714634835.7,286046997.8,N
1714634855.5,286046997.8,N
1714634875.4,286046995.3,Y
1714634895.2,286046999.2,P
1714634915.0,286046999.3,N
1714634916.0,286046999.3,N
1714634935.8,286046999.4,N
1714634955.4,286046999.4,N
1714634975.2,286046999.3,N
1714634995.1,286046998.7,Y
1714634996.0,286046998.7,P
1714635015.8,286047000.7,N
1714635035.6,286047000.5,N
1714635055.5,286047001.0,N
1714635075.3,286047000.3,N
1714635095.1,286047000.7,N
1714635115.9,286046999.3,N
1714635135.7,286046997.9,N
1714635155.6,286046995.7,Y
1714635175.4,286046995.5,P
1714635195.2,286046995.8,N
1714635215.1,286046994.9,N
1714635216.0,286046994.9,N
1714635235.8,286046995.2,N
1714635255.7,286046994.9,N
1714635275.5,286046996.4,N
1714635295.3,286046993.7,Y
1714635315.2,286046999.2,P
1714635335.0,286046996.9,N
1714635335.9,286046996.9,N
1714635355.8,286046997.4,N
1714635375.6,286046996.7,Y
1714635395.4,286047000.7,P
1714635415.3,286046998.5,N
1714635435.1,286047000.7,N
1714635455.9,286047000.9,N
1714635475.7,286046998.5,N
1714635495.5,286046999.4,N
1714635515.4,286046998.9,N
1714635535.2,286046999.0,N
1714635555.0,286046998.6,N
1714635555.9,286046998.6,N
1714635575.8,286046998.4,N
1714635595.6,286046999.1,N
1714635615.5,286046999.5,N
1714635635.3,286046998.5,N
1714635655.1,286046996.5,Y
1714635675.9,286046999.1,P
1714635695.7,286046998.9,P
1714635715.6,286046999.2,P
1714635735.4,286046999.0,Y
1714635755.2,286046998.5,P
1714635775.1,286046996.6,P
1714635776.0,286046996.6,P
1714635795.8,286046996.7,N
1714635815.7,286046997.8,N
1714635835.5,286046996.5,Y
1714635855.3,286047002.7,P
1714635875.2,286046999.7,N
1714635895.0,286047002.4,N
1714635895.9,286047002.4,N
1714635915.8,286047002.6,N
1714635935.6,286047000.4,N
1714635955.4,286047000.4,N
1714635975.3,286047000.3,N
1714635995.1,286047000.6,N
1714636015.9,286046999.3,N
1714636035.7,286046998.5,N
1714636055.5,286047001.0,N
1714636075.4,286047000.3,N
1714636095.2,286047001.1,N
1714636115.0,286046998.9,N
1714636115.9,286046998.9,N
1714636135.8,286046998.9,N
1714636155.6,286046998.8,N
1714636175.5,286046998.4,N
1714636195.3,286046998.7,N
1714636215.1,286047000.7,N
1714636235.9,286046999.1,N
1714636255.7,286046999.0,N
1714636275.6,286046998.2,N
1714636295.4,286047001.2,N
1714636315.2,286047000.8,N
1714636335.1,286046998.1,N
1714636336.0,286046998.1,N
1714636355.8,286046998.8,N
1714636375.6,286046997.1,N
1714636395.5,286046997.0,N
1714636415.3,286046997.3,N
1714636435.2,286046997.2,N
1714636455.9,286046995.6,N
1714636475.7,286046996.2,N
1714636495.6,286046996.2,N
1714636515.4,286046996.3,N
1714636535.3,286046996.2,N
1714636555.1,286046995.4,N
1714636556.0,286046995.4,N
1714636575.8,286046995.2,N
1714636595.7,286046995.1,N
1714636615.5,286046996.3,N
1714636635.3,286046995.8,N
1714636655.2,286046995.4,N
1714636675.0,286046995.7,N
1714636675.9,286046995.7,N
1714636695.8,286046995.9,N
1714636715.6,286046995.9,N
1714636735.4,286046996.4,N
1714636755.3,286046993.6,Y
1714636775.1,286046997.2,P
1714636795.9,286046996.8,P
